| time (UTC) | temp F | wind direction | speed knots | gust knots | rain 1hr in | rain 24hr in | rain mn in | humidity % | barometer mb |
| 20260906163059 | 71 | 74 | 0.0 | 4.3 | 0.00 | 0.00 | 0.00 | 47 | 1021.7 |
| 20260906161552 | 73 | 0 | 0.0 | 5.2 | 0.00 | 0.00 | 0.00 | 45 | 1021.7 |
| 20260906160047 | 73 | 360 | 0.0 | 8.7 | 0.00 | 0.00 | 0.00 | 45 | 1021.8 |
| 20260906154553 | 73 | 0 | 0.9 | 6.1 | 0.00 | 0.00 | 0.00 | 46 | 1021.7 |
| 20260906153112 | 74 | 57 | 1.7 | 7.8 | 0.00 | 0.00 | 0.00 | 44 | 1021.9 |
| 20260906151558 | 74 | 71 | 1.7 | 9.6 | 0.00 | 0.00 | 0.00 | 46 | 1022.1 |
| 20260906150047 | 74 | 62 | 0.9 | 7.8 | 0.00 | 0.00 | 0.00 | 44 | 1022.1 |
| 20260906144558 | 74 | 69 | 0.9 | 7.0 | 0.00 | 0.00 | 0.00 | 43 | 1022.2 |
| 20260906143053 | 73 | 71 | 0.0 | 7.0 | 0.00 | 0.00 | 0.00 | 44 | 1022.3 |
| 20260906141553 | 73 | 360 | 0.9 | 5.2 | 0.00 | 0.00 | 0.00 | 45 | 1022.4 |
| 20260906140048 | 73 | 0 | 0.9 | 7.8 | 0.00 | 0.00 | 0.00 | 46 | 1022.4 |
| 20260906134611 | 73 | 0 | 0.9 | 7.8 | 0.00 | 0.00 | 0.00 | 45 | 1022.6 |
| 20260906133056 | 73 | 0 | 0.0 | 6.1 | 0.00 | 0.00 | 0.00 | 45 | 1022.7 |
| 20260906131552 | 73 | 0 | 0.0 | 5.2 | 0.00 | 0.00 | 0.00 | 42 | 1022.8 |
| 20260906130053 | 72 | 0 | 0.0 | 5.2 | 0.00 | 0.00 | 0.00 | 45 | 1023.0 |
| 20260906124550 | 72 | 67 | 0.0 | 8.7 | 0.00 | 0.00 | 0.00 | 46 | 1023.0 |
| 20260906123059 | 72 | 0 | 0.9 | 5.2 | 0.00 | 0.00 | 0.00 | 46 | 1023.0 |
| 20260906121549 | 72 | 100 | 0.0 | 4.3 | 0.00 | 0.00 | 0.00 | 48 | 1023.2 |
| 20260906120051 | 72 | 360 | 0.9 | 8.7 | 0.00 | 0.00 | 0.00 | 48 | 1023.3 |
| 20260906114553 | 72 | 0 | 0.9 | 7.8 | 0.00 | 0.00 | 0.00 | 49 | 1023.3 |
| 20260906113053 | 71 | 0 | 0.9 | 6.1 | 0.00 | 0.00 | 0.00 | 48 | 1023.5 |
| 20260906111552 | 71 | 0 | 0.9 | 7.0 | 0.00 | 0.00 | 0.00 | 47 | 1023.6 |
| 20260906104555 | 70 | 84 | 0.0 | 5.2 | 0.00 | 0.01 | 0.00 | 52 | 1024.0 |
| 20260906103104 | 70 | 84 | 0.9 | 4.3 | 0.00 | 0.01 | 0.00 | 53 | 1024.0 |
| 20260906101555 | 70 | 0 | 0.0 | 5.2 | 0.00 | 0.01 | 0.00 | 52 | 1024.1 |
| 20260906094554 | 68 | 0 | 0.0 | 6.1 | 0.00 | 0.07 | 0.00 | 57 | 1024.4 |
| 20260906093052 | 67 | 0 | 0.9 | 6.1 | 0.00 | 0.07 | 0.00 | 59 | 1024.6 |
| 20260906091559 | 66 | 51 | 0.0 | 4.3 | 0.00 | 0.07 | 0.00 | 60 | 1024.6 |
| 20260906090115 | 65 | 0 | 0.0 | 7.0 | 0.00 | 0.07 | 0.00 | 61 | 1024.7 |
| 20260906084550 | 64 | 93 | 0.9 | 8.7 | 0.00 | 0.11 | 0.00 | 63 | 1024.8 |
| 20260906083105 | 64 | 0 | 0.9 | 5.2 | 0.00 | 0.11 | 0.00 | 64 | 1024.8 |
| 20260906081558 | 62 | 0 | 0.9 | 7.0 | 0.00 | 0.11 | 0.00 | 66 | 1024.7 |
| 20260906080113 | 61 | 84 | 3.5 | 7.8 | 0.00 | 0.11 | 0.00 | 67 | 1024.6 |
| 20260906074606 | 60 | 0 | 0.9 | 5.2 | 0.00 | 0.12 | 0.00 | 72 | 1024.6 |
| 20260906073104 | 59 | 0 | 0.0 | 2.6 | 0.00 | 0.12 | 0.00 | 77 | 1024.6 |
| 20260906071554 | 58 | 0 | 0.0 | 2.6 | 0.00 | 0.12 | 0.00 | 80 | 1024.7 |
| 20260906070051 | 56 | 0 | 0.0 | 0.0 | 0.00 | 0.12 | 0.00 | 85 | 1024.5 |
| 20260906064546 | 55 | 0 | 0.0 | 0.0 | 0.00 | 0.14 | 0.00 | 86 | 1024.6 |
| 20260906063049 | 53 | 0 | 0.0 | 0.0 | 0.00 | 0.14 | 0.00 | 86 | 1024.5 |
| 20260906061553 | 52 | 0 | 0.0 | 0.0 | 0.00 | 0.14 | 0.00 | 86 | 1024.3 |
| 20260906060051 | 49 | 0 | 0.0 | 0.0 | 0.00 | 0.14 | 0.00 | 84 | 1024.3 |
| 20260906054555 | 48 | 0 | 0.0 | 0.0 | 0.00 | 0.14 | 0.00 | 83 | 1024.4 |
| 20260906053053 | 48 | 0 | 0.0 | 0.0 | 0.00 | 0.14 | 0.00 | 82 | 1024.2 |
| 20260906051601 | 48 | 0 | 0.0 | 0.0 | 0.00 | 0.14 | 0.00 | 82 | 1024.3 |
| 20260906050104 | 48 | 0 | 0.0 | 0.0 | 0.00 | 0.14 | 0.00 | 82 | 1024.3 |
| 20260906044556 | 49 | 0 | 0.0 | 0.0 | 0.00 | 0.14 | 0.00 | 82 | 1024.2 |
| 20260906043057 | 49 | 0 | 0.0 | 0.0 | 0.00 | 0.14 | 0.00 | 82 | 1024.2 |
| 20260906041550 | 49 | 0 | 0.0 | 0.0 | 0.00 | 0.14 | 0.00 | 82 | 1024.1 |
| 20260906040057 | 49 | 0 | 0.0 | 0.0 | 0.00 | 0.14 | 0.00 | 81 | 1024.0 |
| 20260906034612 | 50 | 0 | 0.0 | 0.0 | 0.00 | 0.14 | 0.00 | 81 | 1023.9 |
| 20260906033048 | 50 | 0 | 0.0 | 0.0 | 0.00 | 0.14 | 0.00 | 81 | 1024.1 |
| 20260906031552 | 50 | 0 | 0.0 | 0.0 | 0.00 | 0.14 | 0.00 | 81 | 1024.0 |
| 20260906030056 | 51 | 0 | 0.0 | 0.0 | 0.00 | 0.14 | 0.00 | 81 | 1023.7 |
| 20260906024551 | 51 | 0 | 0.0 | 0.0 | 0.00 | 0.14 | 0.00 | 81 | 1023.7 |
| 20260906023050 | 51 | 0 | 0.0 | 0.0 | 0.00 | 0.14 | 0.00 | 81 | 1023.7 |
| 20260906021552 | 51 | 0 | 0.0 | 0.0 | 0.00 | 0.14 | 0.00 | 81 | 1023.8 |
| 20260906020105 | 52 | 0 | 0.0 | 0.0 | 0.00 | 0.14 | 0.00 | 81 | 1023.7 |
| 20260906014552 | 52 | 0 | 0.0 | 0.0 | 0.00 | 0.14 | 0.00 | 80 | 1023.8 |
| 20260906013104 | 52 | 0 | 0.0 | 0.0 | 0.00 | 0.14 | 0.00 | 81 | 1023.6 |
| 20260906011555 | 53 | 0 | 0.0 | 0.0 | 0.00 | 0.14 | 0.00 | 81 | 1023.5 |
| 20260906010055 | 53 | 0 | 0.0 | 0.0 | 0.00 | 0.14 | 0.00 | 80 | 1023.5 |
| 20260906004549 | 53 | 0 | 0.0 | 0.0 | 0.00 | 0.14 | 0.00 | 80 | 1023.5 |
| 20260906003056 | 53 | 0 | 0.0 | 0.0 | 0.00 | 0.14 | 0.00 | 80 | 1023.6 |
| 20260906001553 | 53 | 0 | 0.0 | 0.0 | 0.00 | 0.14 | 0.00 | 80 | 1023.6 |
| 20260906000100 | 54 | 0 | 0.0 | 0.0 | 0.00 | 0.14 | 0.00 | 80 | 1023.6 |
| 20260905234558 | 54 | 0 | 0.0 | 0.0 | 0.00 | 0.14 | 0.00 | 80 | 1023.5 |
| 20260905233051 | 54 | 0 | 0.0 | 0.0 | 0.00 | 0.14 | 0.00 | 80 | 1023.6 |
| 20260905231555 | 55 | 0 | 0.0 | 0.0 | 0.00 | 0.14 | 0.00 | 80 | 1023.6 |
| 20260905230051 | 55 | 0 | 0.0 | 0.0 | 0.00 | 0.14 | 0.00 | 80 | 1023.6 |
| 20260905224553 | 55 | 0 | 0.0 | 0.0 | 0.00 | 0.14 | 0.00 | 79 | 1023.6 |
| 20260905223052 | 56 | 0 | 0.0 | 0.0 | 0.00 | 0.14 | 0.00 | 79 | 1023.6 |
| 20260905221555 | 56 | 0 | 0.0 | 0.0 | 0.00 | 0.14 | 0.00 | 79 | 1023.5 |
| 20260905214558 | 57 | 0 | 0.0 | 0.0 | 0.00 | 0.14 | 0.14 | 78 | 1023.5 |
| 20260905213052 | 58 | 0 | 0.0 | 0.0 | 0.00 | 0.14 | 0.14 | 78 | 1023.3 |
| 20260905211553 | 58 | 0 | 0.0 | 0.0 | 0.00 | 0.14 | 0.14 | 77 | 1023.4 |
| 20260905210107 | 59 | 0 | 0.0 | 0.0 | 0.00 | 0.14 | 0.14 | 76 | 1023.2 |
| 20260905204550 | 59 | 0 | 0.0 | 0.0 | 0.00 | 0.14 | 0.14 | 76 | 1023.1 |
| 20260905203107 | 60 | 0 | 0.0 | 0.0 | 0.00 | 0.14 | 0.14 | 75 | 1023.1 |
| 20260905201552 | 61 | 0 | 0.0 | 0.0 | 0.00 | 0.14 | 0.14 | 75 | 1023.1 |
| 20260905200051 | 61 | 0 | 0.0 | 0.0 | 0.00 | 0.14 | 0.14 | 74 | 1022.9 |
| 20260905194548 | 62 | 0 | 0.0 | 0.0 | 0.00 | 0.14 | 0.14 | 74 | 1023.0 |
| 20260905193055 | 62 | 0 | 0.0 | 1.7 | 0.00 | 0.14 | 0.14 | 74 | 1022.7 |
| 20260905191550 | 63 | 261 | 1.7 | 5.2 | 0.00 | 0.14 | 0.14 | 73 | 1022.5 |
| 20260905190052 | 64 | 0 | 0.0 | 0.0 | 0.00 | 0.14 | 0.14 | 71 | 1022.4 |
| 20260905184602 | 64 | 0 | 0.0 | 2.6 | 0.00 | 0.14 | 0.14 | 69 | 1022.2 |
| 20260905183055 | 65 | 0 | 0.0 | 1.7 | 0.00 | 0.14 | 0.14 | 69 | 1021.9 |
| 20260905181549 | 65 | 0 | 0.0 | 0.0 | 0.00 | 0.14 | 0.14 | 67 | 1021.7 |
| 20260905180100 | 66 | 0 | 0.0 | 0.9 | 0.00 | 0.14 | 0.14 | 66 | 1021.2 |
| 20260905174555 | 66 | 0 | 0.0 | 1.7 | 0.00 | 0.14 | 0.14 | 65 | 1020.9 |
| 20260905173048 | 67 | 0 | 0.0 | 6.1 | 0.00 | 0.14 | 0.14 | 64 | 1020.8 |
| 20260905171624 | 67 | 0 | 0.0 | 6.1 | 0.00 | 0.14 | 0.14 | 63 | 1020.6 |
| 20260905164552 | 68 | 281 | 0.0 | 8.7 | 0.00 | 0.14 | 0.14 | 61 | 1020.6 |